LHPR Airport Information

Runway Information
Runway 12 Length 4757 ft width 98 ft
Elevation 418 ft Threshold 0 ft Heading 120
Runway 30 Length 4757 ft Width 98 ft
Elevation 426 ft Threshold 0 ft Heading 300
Runway 12L Length 3720 ft width 140 ft
Elevation 0 ft Threshold 0 ft Heading 119
Runway 30R Length 3720 ft Width 140 ft
Elevation 0 ft Threshold 0 ft Heading 299
Airport Frequencies
Type AAS Name AFIS Frequency 129.9 MHZ
Type INFO Name BUDAPEST I Frequency 125.5 MHZ
Airport Navaids
Type VOR-DME Name Gyor Frequency 115100 KHZ
Type NDB Name Gyor Frequency 354 KHZ
Airport Weather Information & NOTAM
ADDS - METARS form results

(0518 UTC 17 November 2018)
Data provider http://aviationweather.gov/metar/data/
 
METAR text: LHPR 170445Z AUTO VRB02KT CAVOK M04/M05 Q1032 RMK BLU
Conditions at: LHPR (GYOR , HU) observed 0445 UTC 17 November 2018
Temperature: -4.0°C (25°F)
Dewpoint: -5.0°C (23°F) [RH = 93%]
Pressure (altimeter): 30.47 inches Hg (1032.0 mb)
Winds: variable direction winds at 2 MPH (2 knots; 1.0 m/s)
Visibility: 6 or more miles (10+ km)
Ceiling: ceiling and visibility are OK
Clouds: unknown
Weather: no significant weather observed at this time